Regional Weather Roundup
Issued by NWS

Home | Current Version | Previous Version | Graphics & Text | Print | Product List | Glossary On
Versions: 1 2 3 4 5 6 7 8 9 10 11 12 13 14 15 16 17 18 19 20 21 22 23 24 25 26 27 28 29 30 31 32 33 34 35 36 37 38 39 40 41 42 43 44 45 46 47 48 49 50
000
ASUS43 KFSD 230002
RWRSD

WEATHER ROUNDUP FOR SOUTH DAKOTA
NATIONAL WEATHER SERVICE SIOUX FALLS SD
700 PM CDT WED MAR 22 2017

NOTE: "FAIR" INDICATES FEW OR NO CLOUDS BELOW 12,000 FEET WITH NO
SIGNIFICANT WEATHER AND/OR OBSTRUCTIONS TO VISIBILITY.


SDZ001>005-009-010-012>017-230100-
NORTHWEST AND NORTH CENTRAL SOUTH DAKOTA

CITY           SKY/WX    TMP DP  RH WIND       PRES   REMARKS
BUFFALO          N/A     60  39  45 W7        29.72R
FAITH            N/A     59  39  47 SE16      29.77S
MOBRIDGE       CLOUDY    48  30  49 SE22G32   29.86F
$$

SDZ012>016-024>037-041>051-057-063-072>074-230100-
SOUTHWEST AND SOUTH CENTRAL SOUTH DAKOTA

CITY           SKY/WX    TMP DP  RH WIND       PRES   REMARKS
RAPID CTY ARPT CLOUDY    61  40  45 N12       29.77S
PIERRE         CLEAR     53  30  41 SE26G33   29.86S
CUSTER         CLOUDY    56  38  50 VRB7      29.84F
ELLSWORTH AFB  CLOUDY    59  42  52 NW7       29.77S
PHILIP         CLOUDY    67  39  35 S13       29.76S
PINE RIDGE     CLOUDY    63  38  39 S18G28    29.81F
SPEARFISH      FAIR      57  41  54 CALM      29.80S
WINNER         FAIR      52  28  39 S28G40    29.92F
$$

SDZ004>011-016>023-039-040-230100-
NORTHEAST SOUTH DAKOTA

CITY           SKY/WX    TMP DP  RH WIND       PRES   REMARKS
ABERDEEN       CLOUDY    36  23  59 S15       30.06F
WATERTOWN      CLOUDY    34  22  61 SE20G29   30.08F WCI  23
BROOKINGS      CLOUDY    35  24  64 SE21G32   30.11F WCI  24
SISSETON         N/A     33  27  78 S29G35    30.11F WCI  19
$$

SDZ017-020-022-023-036>040-048>070-230100-
SOUTHEAST SOUTH DAKOTA

CITY           SKY/WX    TMP DP  RH WIND       PRES   REMARKS
SIOUX FALLS    CLOUDY    39  25  57 SE20G29   30.14F
HURON          CLOUDY    39  25  57 SE21G32   30.04S
CHAMBERLAIN    CLEAR     48  28  45 SE21G29   29.95F
MITCHELL       CLOUDY    42  25  50 SE25G37   30.06F
YANKTON        CLOUDY    43  27  52 E14G22    30.11F
$$

ABBREVIATIONS USED IN REMARKS
   TC - TEMPERATURE IN CELSIUS
  WCI - WIND CHILL INDEX
   HX - HEAT INDEX
  VSB - VISIBILITY





USA.gov is the U.S. government's official web portal to all federal, state and local government web resources and services.